Year,Month,Day,Hour,Minute,Value (Times are PST for temperature in C)
2009,04,04,00,00,1.90
2009,04,04,00,01,1.90
2009,04,04,00,02,1.90
2009,04,04,00,03,1.90
2009,04,04,00,04,1.90
2009,04,04,00,05,1.90
2009,04,04,00,06,1.90
2009,04,04,00,07,1.90
2009,04,04,00,08,1.90
2009,04,04,00,09,1.90
2009,04,04,00,10,1.90
2009,04,04,00,11,1.90
2009,04,04,00,12,1.90
2009,04,04,00,13,1.90
2009,04,04,00,14,1.90
2009,04,04,00,15,1.90
2009,04,04,00,16,1.90
2009,04,04,00,17,1.90
2009,04,04,00,18,1.80
2009,04,04,00,19,1.80
2009,04,04,00,20,1.80
2009,04,04,00,21,1.80
2009,04,04,00,22,1.80
2009,04,04,00,23,1.80
2009,04,04,00,24,1.80
2009,04,04,00,25,1.80
2009,04,04,00,26,1.80
2009,04,04,00,27,1.80
2009,04,04,00,28,1.80
2009,04,04,00,29,1.80
2009,04,04,00,30,1.70
2009,04,04,00,31,1.70
2009,04,04,00,32,1.70
2009,04,04,00,33,1.70
2009,04,04,00,34,1.70
2009,04,04,00,35,1.70
2009,04,04,00,36,1.70
2009,04,04,00,37,1.70
2009,04,04,00,38,1.70
2009,04,04,00,39,1.70
2009,04,04,00,40,1.70
2009,04,04,00,41,1.70
2009,04,04,00,42,1.70
2009,04,04,00,43,1.70
2009,04,04,00,44,1.70
2009,04,04,00,45,1.70
2009,04,04,00,46,1.70
2009,04,04,00,47,1.60
2009,04,04,00,48,1.60
2009,04,04,00,49,1.60
2009,04,04,00,50,1.60
2009,04,04,00,51,1.60
2009,04,04,00,52,1.60
2009,04,04,00,53,1.50
2009,04,04,00,54,1.50
2009,04,04,00,55,1.50
2009,04,04,00,56,1.50
2009,04,04,00,57,1.40
2009,04,04,00,58,1.40
2009,04,04,00,59,1.40
2009,04,04,01,00,1.40
2009,04,04,01,01,1.30
2009,04,04,01,02,1.30
2009,04,04,01,03,1.30
2009,04,04,01,04,1.30
2009,04,04,01,05,1.30
2009,04,04,01,06,1.30
2009,04,04,01,07,1.30
2009,04,04,01,08,1.30
2009,04,04,01,09,1.30
2009,04,04,01,10,1.30
2009,04,04,01,11,1.30
2009,04,04,01,12,1.30
2009,04,04,01,13,1.30
2009,04,04,01,14,1.30
2009,04,04,01,15,1.30
2009,04,04,01,16,1.30
2009,04,04,01,17,1.30
2009,04,04,01,18,1.30
2009,04,04,01,19,1.20
2009,04,04,01,20,1.20
2009,04,04,01,21,1.20
2009,04,04,01,22,1.20
2009,04,04,01,23,1.20
2009,04,04,01,24,1.20
2009,04,04,01,25,1.20
2009,04,04,01,26,1.20
2009,04,04,01,27,1.20
2009,04,04,01,28,1.20
2009,04,04,01,29,1.20
2009,04,04,01,30,1.20
2009,04,04,01,31,1.20
2009,04,04,01,32,1.20
2009,04,04,01,33,1.20
2009,04,04,01,34,1.20
2009,04,04,01,35,1.20
2009,04,04,01,36,1.20
2009,04,04,01,37,1.20
2009,04,04,01,38,1.20
2009,04,04,01,39,1.20
2009,04,04,01,40,1.20
2009,04,04,01,41,1.20
2009,04,04,01,42,1.20
2009,04,04,01,43,1.20
2009,04,04,01,44,1.20
2009,04,04,01,45,1.10
2009,04,04,01,46,1.10
2009,04,04,01,47,1.10
2009,04,04,01,48,1.10
2009,04,04,01,49,1.10
2009,04,04,01,50,1.10
2009,04,04,01,51,1.10
2009,04,04,01,52,1.10
2009,04,04,01,53,1.10
2009,04,04,01,54,1.00
2009,04,04,01,55,1.00
2009,04,04,01,56,1.00
2009,04,04,01,57,0.90
2009,04,04,01,58,0.90
2009,04,04,01,59,0.90
2009,04,04,02,00,0.80
2009,04,04,02,01,0.80
2009,04,04,02,02,0.80
2009,04,04,02,03,0.80
2009,04,04,02,04,0.80
2009,04,04,02,05,0.80
2009,04,04,02,06,0.80
2009,04,04,02,07,0.80
2009,04,04,02,08,0.80
2009,04,04,02,09,0.80
2009,04,04,02,10,0.80
2009,04,04,02,11,0.80
2009,04,04,02,12,0.80
2009,04,04,02,13,0.80
2009,04,04,02,14,0.80
2009,04,04,02,15,0.80
2009,04,04,02,16,0.80
2009,04,04,02,17,0.90
2009,04,04,02,18,0.80
2009,04,04,02,19,0.80
2009,04,04,02,20,0.80
2009,04,04,02,21,0.80
2009,04,04,02,22,0.80
2009,04,04,02,23,0.80
2009,04,04,02,24,0.80
2009,04,04,02,25,0.80
2009,04,04,02,26,0.80
2009,04,04,02,27,0.80
2009,04,04,02,28,0.80
2009,04,04,02,29,0.80
2009,04,04,02,30,0.80
2009,04,04,02,31,0.80
2009,04,04,02,32,0.80
2009,04,04,02,33,0.80
2009,04,04,02,34,0.80
2009,04,04,02,35,0.80
2009,04,04,02,36,0.80
2009,04,04,02,37,0.80
2009,04,04,02,38,0.80
2009,04,04,02,39,0.80
2009,04,04,02,40,0.80
2009,04,04,02,41,0.80
2009,04,04,02,42,0.80
2009,04,04,02,43,0.80
2009,04,04,02,44,0.80
2009,04,04,02,45,0.80
2009,04,04,02,46,0.80
2009,04,04,02,47,0.80
2009,04,04,02,48,0.80
2009,04,04,02,49,0.80
2009,04,04,02,50,0.80
2009,04,04,02,51,0.80
2009,04,04,02,52,0.80
2009,04,04,02,53,0.80
2009,04,04,02,54,0.80
2009,04,04,02,55,0.80
2009,04,04,02,56,0.70
2009,04,04,02,57,0.70
2009,04,04,02,58,0.70
2009,04,04,02,59,0.70
2009,04,04,03,00,0.70
2009,04,04,03,01,0.70
2009,04,04,03,02,0.60
2009,04,04,03,03,0.60
2009,04,04,03,04,0.60
2009,04,04,03,05,0.60
2009,04,04,03,06,0.60
2009,04,04,03,07,0.60
2009,04,04,03,08,0.60
2009,04,04,03,09,0.60
2009,04,04,03,10,0.60
2009,04,04,03,11,0.60
2009,04,04,03,12,0.50
2009,04,04,03,13,0.60
2009,04,04,03,14,0.60
2009,04,04,03,15,0.60
2009,04,04,03,16,0.50
2009,04,04,03,17,0.60
2009,04,04,03,18,0.60
2009,04,04,03,19,0.60
2009,04,04,03,20,0.60
2009,04,04,03,21,0.60
2009,04,04,03,22,0.50
2009,04,04,03,23,0.60
2009,04,04,03,24,0.50
2009,04,04,03,25,0.50
2009,04,04,03,26,0.50
2009,04,04,03,27,0.50
2009,04,04,03,28,0.50
2009,04,04,03,29,0.50
2009,04,04,03,30,0.40
2009,04,04,03,31,0.40
2009,04,04,03,32,0.40
2009,04,04,03,33,0.40
2009,04,04,03,34,0.40
2009,04,04,03,35,0.40
2009,04,04,03,36,0.40
2009,04,04,03,37,0.40
2009,04,04,03,38,0.40
2009,04,04,03,39,0.40
2009,04,04,03,40,0.40
2009,04,04,03,41,0.40
2009,04,04,03,42,0.40
2009,04,04,03,43,0.40
2009,04,04,03,44,0.40
2009,04,04,03,45,0.40
2009,04,04,03,46,0.40
2009,04,04,03,47,0.50
2009,04,04,03,48,0.50
2009,04,04,03,49,0.50
2009,04,04,03,50,0.50
2009,04,04,03,51,0.50
2009,04,04,03,52,0.40
2009,04,04,03,53,0.40
2009,04,04,03,54,0.40
2009,04,04,03,55,0.40
2009,04,04,03,56,0.40
2009,04,04,03,57,0.40
2009,04,04,03,58,0.30
2009,04,04,03,59,0.30
2009,04,04,04,00,0.30
2009,04,04,04,01,0.30
2009,04,04,04,02,0.30
2009,04,04,04,03,0.30
2009,04,04,04,04,0.30
2009,04,04,04,05,0.20
2009,04,04,04,06,0.20
2009,04,04,04,07,0.20
2009,04,04,04,08,0.20
2009,04,04,04,09,0.20
2009,04,04,04,10,0.20
2009,04,04,04,11,0.20
2009,04,04,04,12,0.20
2009,04,04,04,13,0.20
2009,04,04,04,14,0.20
2009,04,04,04,15,0.20
2009,04,04,04,16,0.20
2009,04,04,04,17,0.20
2009,04,04,04,18,0.20
2009,04,04,04,19,0.20
2009,04,04,04,20,0.20
2009,04,04,04,21,0.20
2009,04,04,04,22,0.20
2009,04,04,04,23,0.20
2009,04,04,04,24,0.20
2009,04,04,04,25,0.20
2009,04,04,04,26,0.20
2009,04,04,04,27,0.20
2009,04,04,04,28,0.20
2009,04,04,04,29,0.20
2009,04,04,04,30,0.20
2009,04,04,04,31,0.20
2009,04,04,04,32,0.10
2009,04,04,04,33,0.20
2009,04,04,04,34,0.10
2009,04,04,04,35,0.10
2009,04,04,04,36,0.10
2009,04,04,04,37,0.10
2009,04,04,04,38,0.10
2009,04,04,04,39,0.10
2009,04,04,04,40,0.10
2009,04,04,04,41,0.10
2009,04,04,04,42,0.10
2009,04,04,04,43,0.10
2009,04,04,04,44,0.10
2009,04,04,04,45,0.10
2009,04,04,04,46,0.10
2009,04,04,04,47,0.10
2009,04,04,04,48,0.10
2009,04,04,04,49,0.10
2009,04,04,04,50,0.10
2009,04,04,04,51,0.10
2009,04,04,04,52,0.10
2009,04,04,04,53,0.10
2009,04,04,04,54,0.10
2009,04,04,04,55,0.10
2009,04,04,04,56,0.10
2009,04,04,04,57,0.10
2009,04,04,04,58,0.10
2009,04,04,04,59,0.10
2009,04,04,05,00,0.10
2009,04,04,05,01,0.10
2009,04,04,05,02,0.10
2009,04,04,05,03,0.10
2009,04,04,05,04,0.10
2009,04,04,05,06,0.10
2009,04,04,05,07,0.10
2009,04,04,05,08,0.10
2009,04,04,05,09,0.10
2009,04,04,05,10,0.10
2009,04,04,05,11,0.10
2009,04,04,05,12,0.10
2009,04,04,05,13,0.10
2009,04,04,05,14,0.10
2009,04,04,05,15,0.10
2009,04,04,05,16,0.10
2009,04,04,05,17,0.10
2009,04,04,05,18,0.10
2009,04,04,05,19,0.10
2009,04,04,05,20,0.10
2009,04,04,05,21,0.10
2009,04,04,05,22,0.10
2009,04,04,05,23,0.10
2009,04,04,05,24,0.10
2009,04,04,05,25,0.10
2009,04,04,05,26,0.10
2009,04,04,05,27,0.10
2009,04,04,05,28,0.10
2009,04,04,05,29,0.10
2009,04,04,05,30,0.10
2009,04,04,05,31,0.10
2009,04,04,05,32,0.10
2009,04,04,05,33,0.10
2009,04,04,05,34,0.10
2009,04,04,05,35,0.10
2009,04,04,05,36,0.10
2009,04,04,05,37,0.10
2009,04,04,05,38,0.10
2009,04,04,05,39,0.10
2009,04,04,05,40,0.10
2009,04,04,05,41,0.10
2009,04,04,05,42,0.10
2009,04,04,05,43,0.10
2009,04,04,05,44,0.10
2009,04,04,05,45,0.10
2009,04,04,05,46,0.10
2009,04,04,05,47,0.10
2009,04,04,05,48,0.10
2009,04,04,05,49,0.10
2009,04,04,05,50,0.10
2009,04,04,05,51,0.10
2009,04,04,05,52,0.10
2009,04,04,05,53,0.20
2009,04,04,05,54,0.20
2009,04,04,05,55,0.30
2009,04,04,05,56,0.30
2009,04,04,05,57,0.40
2009,04,04,05,58,0.40
2009,04,04,05,59,0.50
2009,04,04,06,00,0.50
2009,04,04,06,01,0.60
2009,04,04,06,02,0.60
2009,04,04,06,03,0.60
2009,04,04,06,04,0.60
2009,04,04,06,05,0.70
2009,04,04,06,06,0.60
2009,04,04,06,07,0.60
2009,04,04,06,08,0.60
2009,04,04,06,09,0.60
2009,04,04,06,10,0.60
2009,04,04,06,11,0.60
2009,04,04,06,12,0.60
2009,04,04,06,13,0.60
2009,04,04,06,14,0.70
2009,04,04,06,15,0.70
2009,04,04,06,16,0.80
2009,04,04,06,17,0.80
2009,04,04,06,18,0.80
2009,04,04,06,19,0.80
2009,04,04,06,20,0.80
2009,04,04,06,21,0.80
2009,04,04,06,22,0.80
2009,04,04,06,23,0.80
2009,04,04,06,24,0.80
2009,04,04,06,25,0.80
2009,04,04,06,26,0.90
2009,04,04,06,27,0.90
2009,04,04,06,28,0.90
2009,04,04,06,29,1.00
2009,04,04,06,30,1.10
2009,04,04,06,31,1.20
2009,04,04,06,32,1.20
2009,04,04,06,33,1.20
2009,04,04,06,34,1.30
2009,04,04,06,35,1.30
2009,04,04,06,36,1.30
2009,04,04,06,37,1.30
2009,04,04,06,38,1.30
2009,04,04,06,39,1.40
2009,04,04,06,40,1.40
2009,04,04,06,41,1.50
2009,04,04,06,42,1.60
2009,04,04,06,43,1.70
2009,04,04,06,44,1.80
2009,04,04,06,45,1.80
2009,04,04,06,46,1.80
2009,04,04,06,47,1.80
2009,04,04,06,48,1.90
2009,04,04,06,49,1.80
2009,04,04,06,50,1.80
2009,04,04,06,51,1.90
2009,04,04,06,52,1.90
2009,04,04,06,53,2.00
2009,04,04,06,54,2.00
2009,04,04,06,55,2.10
2009,04,04,06,56,2.10
2009,04,04,06,57,2.20
2009,04,04,06,58,2.20
2009,04,04,06,59,2.20
2009,04,04,07,00,2.20
2009,04,04,07,01,2.20
2009,04,04,07,02,2.20
2009,04,04,07,03,2.20
2009,04,04,07,04,2.30
2009,04,04,07,05,2.30
2009,04,04,07,06,2.30
2009,04,04,07,07,2.40
2009,04,04,07,08,2.50
2009,04,04,07,09,2.60
2009,04,04,07,10,2.70
2009,04,04,07,11,2.80
2009,04,04,07,12,2.80
2009,04,04,07,13,2.90
2009,04,04,07,14,3.00
2009,04,04,07,15,3.10
2009,04,04,07,16,3.10
2009,04,04,07,17,3.20
2009,04,04,07,18,3.20
2009,04,04,07,19,3.30
2009,04,04,07,20,3.30
2009,04,04,07,21,3.40
2009,04,04,07,22,3.40
2009,04,04,07,23,3.50
2009,04,04,07,24,3.50
2009,04,04,07,25,3.50
2009,04,04,07,26,3.60
2009,04,04,07,27,3.60
2009,04,04,07,28,3.60
2009,04,04,07,29,3.60
2009,04,04,07,30,3.60
2009,04,04,07,31,3.60
2009,04,04,07,32,3.60
2009,04,04,07,33,3.60
2009,04,04,07,34,3.60
2009,04,04,07,35,3.70
2009,04,04,07,36,3.70
2009,04,04,07,37,3.70
2009,04,04,07,38,3.70
2009,04,04,07,39,3.70
2009,04,04,07,40,3.80
2009,04,04,07,41,3.80
2009,04,04,07,42,3.80
2009,04,04,07,43,3.90
2009,04,04,07,44,3.90
2009,04,04,07,45,4.00
2009,04,04,07,46,4.00
2009,04,04,07,47,4.10
2009,04,04,07,48,4.10
2009,04,04,07,49,4.20
2009,04,04,07,50,4.20
2009,04,04,07,51,4.20
2009,04,04,07,52,4.20
2009,04,04,07,53,4.30
2009,04,04,07,54,4.30
2009,04,04,07,55,4.30
2009,04,04,07,56,4.40
2009,04,04,07,57,4.40
2009,04,04,07,58,4.50
2009,04,04,07,59,4.60
2009,04,04,08,00,4.60
2009,04,04,08,01,4.70
2009,04,04,08,02,4.70
2009,04,04,08,03,4.80
2009,04,04,08,04,4.80
2009,04,04,08,05,4.90
2009,04,04,08,06,5.00
2009,04,04,08,07,5.00
2009,04,04,08,08,5.10
2009,04,04,08,09,5.20
2009,04,04,08,10,5.30
2009,04,04,08,11,5.30
2009,04,04,08,12,5.40
2009,04,04,08,13,5.40
2009,04,04,08,14,5.40
2009,04,04,08,15,5.40
2009,04,04,08,16,5.40
2009,04,04,08,17,5.30
2009,04,04,08,18,5.30
2009,04,04,08,19,5.30
2009,04,04,08,20,5.20
2009,04,04,08,21,5.20
2009,04,04,08,22,5.20
2009,04,04,08,23,5.10
2009,04,04,08,24,5.10
2009,04,04,08,25,5.10
2009,04,04,08,26,5.10
2009,04,04,08,27,5.10
2009,04,04,08,28,5.10
2009,04,04,08,29,5.10
2009,04,04,08,30,5.10
2009,04,04,08,31,5.10
2009,04,04,08,32,5.10
2009,04,04,08,33,5.10
2009,04,04,08,34,5.10
2009,04,04,08,35,5.10
2009,04,04,08,36,5.10
2009,04,04,08,37,5.10
2009,04,04,08,38,5.10
2009,04,04,08,39,5.10
2009,04,04,08,40,5.10
2009,04,04,08,41,5.00
2009,04,04,08,42,5.00
2009,04,04,08,43,5.00
2009,04,04,08,44,5.00
2009,04,04,08,45,5.00
2009,04,04,08,46,5.00
2009,04,04,08,47,4.90
2009,04,04,08,48,4.90
2009,04,04,08,49,4.90
2009,04,04,08,50,4.90
2009,04,04,08,51,5.00
2009,04,04,08,52,5.00
2009,04,04,08,53,5.00
2009,04,04,08,54,5.00
2009,04,04,08,55,5.00
2009,04,04,08,56,5.00
2009,04,04,08,57,5.00
2009,04,04,08,58,5.00
2009,04,04,08,59,5.00
2009,04,04,09,00,5.10
2009,04,04,09,01,5.10
2009,04,04,09,02,5.10
2009,04,04,09,03,5.10
2009,04,04,09,04,5.10
2009,04,04,09,05,5.10
2009,04,04,09,06,5.10
2009,04,04,09,07,5.10
2009,04,04,09,08,5.10
2009,04,04,09,09,5.10
2009,04,04,09,10,5.10
2009,04,04,09,11,5.10
2009,04,04,09,12,5.10
2009,04,04,09,13,5.10
2009,04,04,09,14,5.10
2009,04,04,09,15,5.10
2009,04,04,09,16,5.10
2009,04,04,09,17,5.10
2009,04,04,09,18,5.10
2009,04,04,09,19,5.10
2009,04,04,09,20,5.10
2009,04,04,09,21,5.10
2009,04,04,09,22,5.10
2009,04,04,09,23,5.10
2009,04,04,09,24,5.10
2009,04,04,09,25,5.10
2009,04,04,09,26,5.10
2009,04,04,09,27,5.10
2009,04,04,09,28,5.10
2009,04,04,09,29,5.10
2009,04,04,09,30,5.20
2009,04,04,09,31,5.20
2009,04,04,09,32,5.10
2009,04,04,09,33,5.10
2009,04,04,09,34,5.10
2009,04,04,09,35,5.10
2009,04,04,09,36,5.10
2009,04,04,09,37,5.10
2009,04,04,09,38,5.10
2009,04,04,09,39,5.20
2009,04,04,09,40,5.20
2009,04,04,09,41,5.20
2009,04,04,09,42,5.20
2009,04,04,09,43,5.30
2009,04,04,09,44,5.30
2009,04,04,09,45,5.30
2009,04,04,09,46,5.30
2009,04,04,09,47,5.30
2009,04,04,09,48,5.30
2009,04,04,09,49,5.40
2009,04,04,09,50,5.40
2009,04,04,09,51,5.40
2009,04,04,09,52,5.50
2009,04,04,09,53,5.60
2009,04,04,09,54,5.60
2009,04,04,09,55,5.60
2009,04,04,09,56,5.70
2009,04,04,09,57,5.70
2009,04,04,09,58,5.80
2009,04,04,09,59,5.80
2009,04,04,10,00,5.80
2009,04,04,10,01,5.80
2009,04,04,10,02,5.80
2009,04,04,10,03,5.90
2009,04,04,10,04,5.90
2009,04,04,10,05,6.00
2009,04,04,10,06,6.00
2009,04,04,10,07,6.00
2009,04,04,10,08,5.90
2009,04,04,10,09,5.90
2009,04,04,10,10,6.00
2009,04,04,10,11,6.00
2009,04,04,10,12,6.00
2009,04,04,10,13,6.00
2009,04,04,10,14,6.00
2009,04,04,10,15,5.90
2009,04,04,10,16,5.80
2009,04,04,10,17,5.90
2009,04,04,10,18,5.90
2009,04,04,10,19,6.00
2009,04,04,10,20,6.10
2009,04,04,10,21,6.10
2009,04,04,10,22,6.20
2009,04,04,10,23,6.20
2009,04,04,10,24,6.30
2009,04,04,10,25,6.40
2009,04,04,10,26,6.50
2009,04,04,10,27,6.50
2009,04,04,10,28,6.60
2009,04,04,10,29,6.70
2009,04,04,10,30,6.70
2009,04,04,10,31,6.70
2009,04,04,10,32,6.70
2009,04,04,10,33,6.70
2009,04,04,10,34,6.80
2009,04,04,10,35,6.80
2009,04,04,10,36,6.80
2009,04,04,10,37,6.80
2009,04,04,10,38,6.80
2009,04,04,10,39,6.80
2009,04,04,10,40,6.80
2009,04,04,10,41,6.80
2009,04,04,10,42,6.80
2009,04,04,10,43,6.80
2009,04,04,10,44,6.80
2009,04,04,10,45,6.80
2009,04,04,10,46,6.80
2009,04,04,10,47,6.80
2009,04,04,10,48,6.80
2009,04,04,10,49,6.80
2009,04,04,10,50,6.80
2009,04,04,10,51,6.90
2009,04,04,10,52,6.90
2009,04,04,10,53,6.90
2009,04,04,10,54,6.90
2009,04,04,10,55,6.90
2009,04,04,10,56,6.90
2009,04,04,10,57,6.80
2009,04,04,10,58,6.80
2009,04,04,10,59,6.70
2009,04,04,11,00,6.60
2009,04,04,11,01,6.50
2009,04,04,11,02,6.40
2009,04,04,11,03,6.40
2009,04,04,11,04,6.40
2009,04,04,11,05,6.30
2009,04,04,11,06,6.30
2009,04,04,11,07,6.30
2009,04,04,11,08,6.30
2009,04,04,11,09,6.30
2009,04,04,11,10,6.30
2009,04,04,11,11,6.40
2009,04,04,11,12,6.30
2009,04,04,11,13,6.30
2009,04,04,11,14,6.30
2009,04,04,11,15,6.30
2009,04,04,11,16,6.30
2009,04,04,11,17,6.40
2009,04,04,11,18,6.40
2009,04,04,11,19,6.50
2009,04,04,11,20,6.50
2009,04,04,11,21,6.60
2009,04,04,11,22,6.60
2009,04,04,11,23,6.60
2009,04,04,11,24,6.50
2009,04,04,11,25,6.50
2009,04,04,11,26,6.50
2009,04,04,11,27,6.50
2009,04,04,11,28,6.50
2009,04,04,11,29,6.60
2009,04,04,11,30,6.60
2009,04,04,11,31,6.60
2009,04,04,11,32,6.60
2009,04,04,11,33,6.70
2009,04,04,11,34,6.70
2009,04,04,11,35,6.70
2009,04,04,11,36,6.70
2009,04,04,11,37,6.70
2009,04,04,11,38,6.70
2009,04,04,11,39,6.80
2009,04,04,11,40,6.80
2009,04,04,11,41,6.80
2009,04,04,11,42,6.90
2009,04,04,11,43,6.90
2009,04,04,11,44,6.90
2009,04,04,11,45,7.00
2009,04,04,11,46,6.90
2009,04,04,11,47,6.90
2009,04,04,11,48,7.00
2009,04,04,11,49,7.10
2009,04,04,11,50,7.10
2009,04,04,11,51,7.10
2009,04,04,11,52,7.10
2009,04,04,11,53,7.20
2009,04,04,11,54,7.20
2009,04,04,11,55,7.20
2009,04,04,11,56,7.20
2009,04,04,11,57,7.20
2009,04,04,11,58,7.30
2009,04,04,11,59,7.30
2009,04,04,12,00,7.40
2009,04,04,12,01,7.40
2009,04,04,12,02,7.40
2009,04,04,12,03,7.30
2009,04,04,12,04,7.20
2009,04,04,12,05,7.20
2009,04,04,12,06,7.20
2009,04,04,12,07,7.10
2009,04,04,12,08,7.10
2009,04,04,12,09,6.90
2009,04,04,12,10,6.90
2009,04,04,12,11,6.80
2009,04,04,12,12,6.80
2009,04,04,12,13,6.80
2009,04,04,12,14,6.80
2009,04,04,12,15,6.80
2009,04,04,12,16,6.80
2009,04,04,12,17,6.80
2009,04,04,12,18,6.80
2009,04,04,12,19,6.80
2009,04,04,12,20,6.80
2009,04,04,12,21,6.80
2009,04,04,12,22,6.80
2009,04,04,12,23,6.80
2009,04,04,12,24,6.80
2009,04,04,12,25,6.80
2009,04,04,12,26,6.90
2009,04,04,12,27,6.80
2009,04,04,12,28,6.80
2009,04,04,12,29,6.80
2009,04,04,12,30,6.90
2009,04,04,12,31,6.90
2009,04,04,12,32,6.90
2009,04,04,12,33,6.90
2009,04,04,12,34,6.90
2009,04,04,12,35,6.90
2009,04,04,12,36,6.90
2009,04,04,12,37,7.00
2009,04,04,12,38,7.10
2009,04,04,12,39,7.20
2009,04,04,12,40,7.20
2009,04,04,12,41,7.30
2009,04,04,12,42,7.50
2009,04,04,12,43,7.60
2009,04,04,12,44,7.70
2009,04,04,12,45,7.70
2009,04,04,12,46,7.80
2009,04,04,12,47,7.90
2009,04,04,12,48,8.00
2009,04,04,12,49,8.10
2009,04,04,12,50,8.20
2009,04,04,12,51,8.30
2009,04,04,12,52,8.30
2009,04,04,12,53,8.40
2009,04,04,12,54,8.30
2009,04,04,12,55,8.20
2009,04,04,12,56,8.10
2009,04,04,12,57,8.00
2009,04,04,12,58,7.90
2009,04,04,12,59,8.00
2009,04,04,13,00,8.00
2009,04,04,13,01,8.00
2009,04,04,13,02,8.00
2009,04,04,13,03,8.10
2009,04,04,13,04,8.00
2009,04,04,13,05,8.00
2009,04,04,13,06,7.90
2009,04,04,13,07,7.80
2009,04,04,13,08,7.80
2009,04,04,13,09,7.80
2009,04,04,13,10,7.80
2009,04,04,13,11,7.90
2009,04,04,13,12,8.00
2009,04,04,13,13,8.10
2009,04,04,13,14,8.20
2009,04,04,13,15,8.20
2009,04,04,13,16,8.30
2009,04,04,13,17,8.40
2009,04,04,13,18,8.50
2009,04,04,13,19,8.60
2009,04,04,13,20,8.60
2009,04,04,13,21,8.70
2009,04,04,13,22,8.70
2009,04,04,13,23,8.80
2009,04,04,13,24,8.80
2009,04,04,13,25,8.80
2009,04,04,13,26,8.80
2009,04,04,13,27,8.80
2009,04,04,13,28,8.80
2009,04,04,13,29,8.90
2009,04,04,13,30,8.90
2009,04,04,13,31,8.90
2009,04,04,13,32,9.00
2009,04,04,13,33,9.00
2009,04,04,13,34,9.10
2009,04,04,13,35,9.20
2009,04,04,13,36,9.20
2009,04,04,13,37,9.10
2009,04,04,13,38,9.00
2009,04,04,13,39,8.90
2009,04,04,13,40,8.90
2009,04,04,13,41,8.80
2009,04,04,13,42,8.70
2009,04,04,13,43,8.60
2009,04,04,13,44,8.60
2009,04,04,13,45,8.60
2009,04,04,13,46,8.60
2009,04,04,13,47,8.60
2009,04,04,13,48,8.70
2009,04,04,13,49,8.70
2009,04,04,13,50,8.90
2009,04,04,13,51,9.00
2009,04,04,13,52,9.10
2009,04,04,13,53,9.10
2009,04,04,13,54,9.20
2009,04,04,13,55,9.30
2009,04,04,13,56,9.30
2009,04,04,13,57,9.40
2009,04,04,13,58,9.40
2009,04,04,13,59,9.40
2009,04,04,14,00,9.30
2009,04,04,14,01,9.20
2009,04,04,14,02,9.10
2009,04,04,14,03,9.10
2009,04,04,14,04,9.00
2009,04,04,14,05,8.80
2009,04,04,14,06,8.70
2009,04,04,14,07,8.50
2009,04,04,14,08,8.50
2009,04,04,14,09,8.40
2009,04,04,14,10,8.30
2009,04,04,14,11,8.30
2009,04,04,14,12,8.30
2009,04,04,14,13,8.40
2009,04,04,14,14,8.60
2009,04,04,14,15,8.70
2009,04,04,14,16,8.90
2009,04,04,14,17,9.00
2009,04,04,14,18,9.10
2009,04,04,14,19,9.20
2009,04,04,14,20,9.30
2009,04,04,14,21,9.40
2009,04,04,14,22,9.30
2009,04,04,14,23,9.30
2009,04,04,14,24,9.30
2009,04,04,14,25,9.20
2009,04,04,14,26,9.20
2009,04,04,14,27,9.30
2009,04,04,14,28,9.30
2009,04,04,14,29,9.30
2009,04,04,14,30,9.30
2009,04,04,14,31,9.30
2009,04,04,14,32,9.30
2009,04,04,14,33,9.40
2009,04,04,14,34,9.30
2009,04,04,14,35,9.30
2009,04,04,14,36,9.20
2009,04,04,14,37,9.20
2009,04,04,14,38,9.30
2009,04,04,14,39,9.30
2009,04,04,14,40,9.30
2009,04,04,14,41,9.30
2009,04,04,14,42,9.30
2009,04,04,14,43,9.30
2009,04,04,14,44,9.20
2009,04,04,14,45,9.20
2009,04,04,14,46,9.20
2009,04,04,14,47,9.20
2009,04,04,14,48,9.20
2009,04,04,14,49,9.20
2009,04,04,14,50,9.20
2009,04,04,14,51,9.30
2009,04,04,14,52,9.30
2009,04,04,14,53,9.30
2009,04,04,14,54,9.30
2009,04,04,14,55,9.40
2009,04,04,14,56,9.40
2009,04,04,14,57,9.40
2009,04,04,14,58,9.40
2009,04,04,14,59,9.50
2009,04,04,15,00,9.50
2009,04,04,15,01,9.60
2009,04,04,15,02,9.60
2009,04,04,15,03,9.60
2009,04,04,15,04,9.70
2009,04,04,15,05,9.70
2009,04,04,15,06,9.70
2009,04,04,15,07,9.70
2009,04,04,15,08,9.70
2009,04,04,15,09,9.70
2009,04,04,15,10,9.70
2009,04,04,15,11,9.80
2009,04,04,15,12,9.80
2009,04,04,15,13,9.80
2009,04,04,15,14,9.80
2009,04,04,15,15,9.80
2009,04,04,15,16,9.80
2009,04,04,15,17,9.80
2009,04,04,15,18,9.80
2009,04,04,15,19,9.80
2009,04,04,15,20,9.80
2009,04,04,15,21,9.90
2009,04,04,15,22,9.90
2009,04,04,15,23,9.90
2009,04,04,15,24,10.00
2009,04,04,15,25,10.00
2009,04,04,15,26,10.00
2009,04,04,15,27,10.00
2009,04,04,15,28,9.90
2009,04,04,15,29,9.90
2009,04,04,15,30,9.90
2009,04,04,15,31,9.90
2009,04,04,15,32,9.90
2009,04,04,15,33,9.90
2009,04,04,15,34,10.00
2009,04,04,15,35,10.00
2009,04,04,15,36,10.10
2009,04,04,15,37,10.10
2009,04,04,15,38,10.10
2009,04,04,15,39,10.10
2009,04,04,15,40,10.10
2009,04,04,15,41,10.20
2009,04,04,15,42,10.20
2009,04,04,15,43,10.20
2009,04,04,15,44,10.20
2009,04,04,15,45,10.20
2009,04,04,15,46,10.30
2009,04,04,15,47,10.40
2009,04,04,15,48,10.40
2009,04,04,15,49,10.40
2009,04,04,15,50,10.40
2009,04,04,15,51,10.30
2009,04,04,15,52,10.30
2009,04,04,15,53,10.40
2009,04,04,15,54,10.40
2009,04,04,15,55,10.50
2009,04,04,15,56,10.60
2009,04,04,15,57,10.60
2009,04,04,15,58,10.60
2009,04,04,15,59,10.50
2009,04,04,16,00,10.50
2009,04,04,16,01,10.50
2009,04,04,16,02,10.60
2009,04,04,16,03,10.60
2009,04,04,16,04,10.60
2009,04,04,16,05,10.60
2009,04,04,16,06,10.60
2009,04,04,16,07,10.50
2009,04,04,16,08,10.60
2009,04,04,16,09,10.50
2009,04,04,16,10,10.50
2009,04,04,16,11,10.60
2009,04,04,16,12,10.60
2009,04,04,16,13,10.60
2009,04,04,16,14,10.60
2009,04,04,16,15,10.60
2009,04,04,16,16,10.60
2009,04,04,16,17,10.70
2009,04,04,16,18,10.70
2009,04,04,16,19,10.80
2009,04,04,16,20,10.90
2009,04,04,16,21,10.90
2009,04,04,16,22,10.90
2009,04,04,16,23,10.90
2009,04,04,16,24,10.90
2009,04,04,16,25,10.90
2009,04,04,16,26,10.80
2009,04,04,16,27,10.80
2009,04,04,16,28,10.80
2009,04,04,16,29,10.70
2009,04,04,16,30,10.70
2009,04,04,16,31,10.70
2009,04,04,16,32,10.70
2009,04,04,16,33,10.60
2009,04,04,16,34,10.60
2009,04,04,16,35,10.60
2009,04,04,16,36,10.60
2009,04,04,16,37,10.60
2009,04,04,16,38,10.60
2009,04,04,16,39,10.60
2009,04,04,16,40,10.60
2009,04,04,16,41,10.70
2009,04,04,16,42,10.70
2009,04,04,16,43,10.80
2009,04,04,16,44,10.80
2009,04,04,16,45,10.90
2009,04,04,16,46,11.00
2009,04,04,16,47,11.00
2009,04,04,16,48,11.00
2009,04,04,16,49,10.90
2009,04,04,16,50,10.90
2009,04,04,16,51,10.80
2009,04,04,16,52,10.80
2009,04,04,16,53,10.80
2009,04,04,16,54,10.80
2009,04,04,16,55,10.80
2009,04,04,16,56,10.80
2009,04,04,16,57,10.70
2009,04,04,16,58,10.70
2009,04,04,16,59,10.70
2009,04,04,17,00,10.70
2009,04,04,17,01,10.70
2009,04,04,17,02,10.70
2009,04,04,17,03,10.70
2009,04,04,17,04,10.80
2009,04,04,17,05,10.80
2009,04,04,17,06,10.80
2009,04,04,17,07,10.90
2009,04,04,17,08,10.90
2009,04,04,17,09,10.90
2009,04,04,17,10,10.90
2009,04,04,17,11,10.80
2009,04,04,17,12,10.80
2009,04,04,17,13,10.80
2009,04,04,17,14,10.80
2009,04,04,17,15,10.80
2009,04,04,17,16,10.80
2009,04,04,17,17,10.80
2009,04,04,17,18,10.80
2009,04,04,17,19,10.80
2009,04,04,17,20,10.80
2009,04,04,17,21,10.80
2009,04,04,17,22,10.80
2009,04,04,17,23,10.80
2009,04,04,17,24,10.90
2009,04,04,17,25,10.90
2009,04,04,17,26,10.90
2009,04,04,17,27,11.00
2009,04,04,17,28,11.00
2009,04,04,17,29,11.00
2009,04,04,17,30,10.90
2009,04,04,17,31,10.80
2009,04,04,17,32,10.80
2009,04,04,17,33,10.70
2009,04,04,17,34,10.70
2009,04,04,17,35,10.70
2009,04,04,17,36,10.70
2009,04,04,17,37,10.80
2009,04,04,17,38,10.80
2009,04,04,17,39,10.80
2009,04,04,17,40,10.80
2009,04,04,17,41,10.80
2009,04,04,17,42,10.80
2009,04,04,17,43,10.80
2009,04,04,17,44,10.80
2009,04,04,17,45,10.80
2009,04,04,17,46,10.80
2009,04,04,17,47,10.80
2009,04,04,17,48,10.90
2009,04,04,17,49,10.90
2009,04,04,17,50,10.90
2009,04,04,17,51,10.90
2009,04,04,17,52,10.90
2009,04,04,17,53,10.90
2009,04,04,17,54,10.80
2009,04,04,17,55,10.80
2009,04,04,17,56,10.80
2009,04,04,17,57,10.80
2009,04,04,17,58,10.80
2009,04,04,17,59,10.80
2009,04,04,18,00,10.80